Location: ??????
(38.0131°N, 23.7723°E)
Time: 05:10:53
(UTC+00:00)

Cosmos 2123 Rocket - Pass Details

Date: 17 October 2021
Orbit: 961 x 992 km, 82.9° (Epoch: 28 November)

Event Time Altitude Azimuth Distance (km) Brightness Sun altitude
Rises 16:41:26 0° 1° (N) 3,715 7.0 -12.0°
Reaches altitude 10° 16:44:09 10° 8° (N) 2,761 6.3 -12.5°
Maximum altitude 16:50:04 40° 77° (ENE) 1,426 4.4 -13.7°
Drops below altitude 10° 16:55:54 10° 146° (SE) 2,734 6.0 -14.8°
Sets 16:58:34 0° 153° (SSE) 3,674 6.8 -15.3°
